CFG731 EDDF-EDDP

Flight info

Callsign CFG731
Flight time 0h 41m
Altitude 23000
Route SULUS7S SULUS Z12 LASGA/N0418F220 T953 VOCIM/N0412F210 T954 GOXLI GOXLI1V
Aircraft A320/M-SDE3FGHIRWY/LB1

Departure

Time 2026-04-14 16:13
Airport Frankfurt Main Airport (EDDF)

Arrival

Time 2026-04-14 16:55
Airport Leipzig/Halle Airport (EDDP)
Time Latitude Longitude Altitude Speed Heading
2026-04-14 15:36 50.04390 8.56168 362 ft 0 kts 155°
2026-04-14 16:01 50.04391 8.56167 356 ft 2 kts 155°
2026-04-14 16:01 50.04415 8.56151 362 ft 4 kts 155°
2026-04-14 16:01 50.04439 8.56133 363 ft 4 kts 156°
2026-04-14 16:01 50.04454 8.56130 359 ft 4 kts 240°
2026-04-14 16:02 50.04459 8.56148 358 ft 0 kts 250°
2026-04-14 16:02 50.04454 8.56125 359 ft 0 kts 250°
2026-04-14 16:05 50.04451 8.56116 360 ft 5 kts 250°
2026-04-14 16:06 50.04433 8.56050 359 ft 6 kts 236°
2026-04-14 16:06 50.04402 8.56025 356 ft 4 kts 185°
2026-04-14 16:06 50.04377 8.56037 363 ft 7 kts 158°
2026-04-14 16:06 50.04296 8.56098 355 ft 17 kts 129°
2026-04-14 16:07 50.04288 8.56203 361 ft 8 kts 136°
2026-04-14 16:07 50.04239 8.56240 361 ft 8 kts 160°
2026-04-14 16:07 50.04191 8.56268 354 ft 7 kts 159°
2026-04-14 16:07 50.04147 8.56278 356 ft 6 kts 202°
2026-04-14 16:08 50.04112 8.56207 352 ft 14 kts 252°
2026-04-14 16:08 50.04075 8.56055 355 ft 15 kts 248°
2026-04-14 16:08 50.04039 8.55912 350 ft 14 kts 251°
2026-04-14 16:08 50.04007 8.55780 353 ft 13 kts 249°
2026-04-14 16:09 50.03972 8.55630 356 ft 19 kts 250°
2026-04-14 16:09 50.03925 8.55431 354 ft 20 kts 249°
2026-04-14 16:09 50.03873 8.55218 357 ft 22 kts 249°
2026-04-14 16:09 50.03817 8.54986 354 ft 24 kts 249°
2026-04-14 16:10 50.03757 8.54732 349 ft 26 kts 250°
2026-04-14 16:10 50.03693 8.54462 342 ft 28 kts 249°
2026-04-14 16:10 50.03663 8.54342 350 ft 0 kts 247°
2026-04-14 16:10 50.03663 8.54341 350 ft 1 kts 247°
2026-04-14 16:11 50.03641 8.54242 345 ft 13 kts 250°
2026-04-14 16:11 50.03575 8.54208 346 ft 10 kts 157°
2026-04-14 16:11 50.03546 8.54231 338 ft 0 kts 143°
2026-04-14 16:12 50.03534 8.54270 338 ft 13 kts 103°
2026-04-14 16:12 50.03512 8.54489 345 ft 32 kts 79°
2026-04-14 16:13 50.03675 8.55179 348 ft 102 kts 69°
2026-04-14 16:13 50.03995 8.56490 357 ft 155 kts 68°
2026-04-14 16:13 50.04324 8.58184 734 ft 171 kts 77°
2026-04-14 16:13 50.04505 8.60060 1350 ft 176 kts 75°
2026-04-14 16:14 50.04878 8.61854 2109 ft 175 kts 66°
2026-04-14 16:14 50.05361 8.63700 2529 ft 194 kts 66°
2026-04-14 16:14 50.05901 8.65751 2889 ft 213 kts 67°
2026-04-14 16:14 50.06460 8.67963 3542 ft 223 kts 67°
2026-04-14 16:15 50.07002 8.70273 3936 ft 228 kts 74°
2026-04-14 16:15 50.07077 8.72751 4052 ft 248 kts 97°
2026-04-14 16:15 50.06780 8.75513 4799 ft 262 kts 97°
2026-04-14 16:15 50.06460 8.78337 5761 ft 265 kts 97°
2026-04-14 16:16 50.06243 8.80218 6390 ft 267 kts 98°
2026-04-14 16:16 50.05912 8.83076 7223 ft 271 kts 98°
2026-04-14 16:16 50.05781 8.86017 8017 ft 275 kts 86°
2026-04-14 16:16 50.05832 8.89019 8797 ft 281 kts 88°
2026-04-14 16:17 50.05886 8.92103 9561 ft 288 kts 89°
2026-04-14 16:17 50.05942 8.95255 10323 ft 294 kts 89°
2026-04-14 16:17 50.05999 8.98546 10667 ft 316 kts 89°
2026-04-14 16:17 50.06059 9.02082 10899 ft 339 kts 89°
2026-04-14 16:18 50.06121 9.05872 11075 ft 362 kts 89°
2026-04-14 16:18 50.06180 9.09902 11261 ft 382 kts 89°
2026-04-14 16:18 50.06237 9.14086 11780 ft 390 kts 89°
2026-04-14 16:18 50.06299 9.18330 12408 ft 394 kts 89°
2026-04-14 16:19 50.06363 9.22620 13007 ft 400 kts 89°
2026-04-14 16:19 50.06428 9.26973 13665 ft 404 kts 89°
2026-04-14 16:19 50.06491 9.31358 14280 ft 408 kts 89°
2026-04-14 16:19 50.06552 9.35800 14849 ft 412 kts 89°
2026-04-14 16:20 50.06606 9.40145 15435 ft 414 kts 89°
2026-04-14 16:20 50.06659 9.44813 16057 ft 417 kts 89°
2026-04-14 16:20 50.06710 9.49333 16631 ft 420 kts 88°
2026-04-14 16:20 50.06760 9.53901 17231 ft 422 kts 88°
2026-04-14 16:21 50.06811 9.58486 17785 ft 425 kts 88°
2026-04-14 16:21 50.06858 9.63102 18335 ft 428 kts 89°
2026-04-14 16:21 50.06904 9.67751 18781 ft 432 kts 89°
2026-04-14 16:21 50.06952 9.72448 19194 ft 435 kts 89°
2026-04-14 16:22 50.07000 9.77156 19630 ft 438 kts 89°
2026-04-14 16:22 50.07049 9.81923 20059 ft 441 kts 89°
2026-04-14 16:22 50.07093 9.86713 20462 ft 444 kts 90°
2026-04-14 16:22 50.07132 9.91530 20860 ft 447 kts 90°
2026-04-14 16:23 50.07169 9.96386 21245 ft 450 kts 90°
2026-04-14 16:23 50.07202 10.01256 21622 ft 452 kts 90°
2026-04-14 16:23 50.07230 10.06169 21983 ft 455 kts 90°
2026-04-14 16:23 50.07259 10.11099 22325 ft 458 kts 90°
2026-04-14 16:24 50.07288 10.16076 22656 ft 461 kts 90°
2026-04-14 16:24 50.07314 10.21078 22991 ft 463 kts 90°
2026-04-14 16:24 50.07340 10.26108 23178 ft 466 kts 90°
2026-04-14 16:24 50.07367 10.31200 23213 ft 475 kts 90°
2026-04-14 16:25 50.07395 10.36381 23211 ft 482 kts 90°
2026-04-14 16:25 50.07422 10.41620 23215 ft 484 kts 90°
2026-04-14 16:25 50.07450 10.46858 23207 ft 485 kts 90°
2026-04-14 16:25 50.07474 10.52117 23207 ft 485 kts 90°
2026-04-14 16:26 50.07492 10.57360 23206 ft 484 kts 90°
2026-04-14 16:26 50.07557 10.62585 23204 ft 482 kts 86°
2026-04-14 16:26 50.08056 10.67735 23209 ft 482 kts 77°
2026-04-14 16:26 50.09072 10.72699 23206 ft 482 kts 68°
2026-04-14 16:27 50.10582 10.77361 23204 ft 482 kts 58°
2026-04-14 16:27 50.12541 10.81591 23204 ft 481 kts 49°
2026-04-14 16:27 50.14768 10.85478 23209 ft 481 kts 47°
2026-04-14 16:27 50.17009 10.89370 23182 ft 482 kts 47°
2026-04-14 16:28 50.19248 10.93266 23186 ft 482 kts 47°
2026-04-14 16:28 50.21487 10.97169 23176 ft 483 kts 47°
2026-04-14 16:28 50.23720 11.01073 23179 ft 483 kts 48°
2026-04-14 16:28 50.25954 11.04997 23185 ft 483 kts 48°
2026-04-14 16:29 50.28186 11.08925 23185 ft 483 kts 48°
2026-04-14 16:29 50.30433 11.12818 23183 ft 483 kts 44°
2026-04-14 16:29 50.32973 11.16232 23200 ft 481 kts 34°
2026-04-14 16:29 50.35835 11.18930 23211 ft 480 kts 25°
2026-04-14 16:30 50.38931 11.20842 23203 ft 478 kts 15°
2026-04-14 16:30 50.42171 11.21916 23199 ft 476 kts
2026-04-14 16:30 50.45466 11.22134 23194 ft 473 kts 356°
2026-04-14 16:30 50.48756 11.21874 23194 ft 473 kts 355°
2026-04-14 16:31 50.52044 11.21614 23117 ft 474 kts 355°
2026-04-14 16:31 50.55335 11.21366 22833 ft 472 kts 355°
2026-04-14 16:31 50.58616 11.21140 22565 ft 472 kts 356°
2026-04-14 16:31 50.61893 11.21392 22302 ft 472 kts
2026-04-14 16:32 50.65105 11.22416 22033 ft 472 kts 14°
2026-04-14 16:32 50.68187 11.24204 21767 ft 472 kts 23°
2026-04-14 16:32 50.71130 11.26360 21495 ft 458 kts 24°
2026-04-14 16:32 50.73931 11.28418 21252 ft 442 kts 24°
2026-04-14 16:33 50.76713 11.30456 20994 ft 428 kts 24°
2026-04-14 16:33 50.79381 11.32405 20747 ft 418 kts 23°
2026-04-14 16:33 50.81976 11.34299 20501 ft 415 kts 23°
2026-04-14 16:33 50.84597 11.36215 20250 ft 414 kts 23°
2026-04-14 16:34 50.87198 11.38122 20002 ft 412 kts 23°
2026-04-14 16:34 50.89792 11.40027 19753 ft 410 kts 24°
2026-04-14 16:34 50.92378 11.41931 19509 ft 409 kts 23°
2026-04-14 16:34 50.94956 11.43827 19269 ft 408 kts 23°
2026-04-14 16:35 50.97524 11.45716 19027 ft 406 kts 23°
2026-04-14 16:35 51.00079 11.47601 18791 ft 405 kts 24°
2026-04-14 16:35 51.02632 11.49490 18558 ft 404 kts 23°
2026-04-14 16:35 51.05128 11.51544 18295 ft 404 kts 31°
2026-04-14 16:36 51.07349 11.54191 18016 ft 396 kts 41°
2026-04-14 16:36 51.09220 11.57324 17763 ft 387 kts 51°
2026-04-14 16:36 51.10711 11.60821 17492 ft 378 kts 60°
2026-04-14 16:36 51.11814 11.64555 17228 ft 370 kts 69°
2026-04-14 16:37 51.12531 11.68437 16987 ft 361 kts 79°
2026-04-14 16:37 51.12953 11.72312 16847 ft 350 kts 81°
2026-04-14 16:37 51.13353 11.76076 16715 ft 340 kts 81°
2026-04-14 16:37 51.13742 11.79742 16489 ft 333 kts 81°
2026-04-14 16:38 51.14125 11.83355 16165 ft 330 kts 81°
2026-04-14 16:38 51.14505 11.86950 15833 ft 328 kts 81°
2026-04-14 16:38 51.14879 11.90527 15464 ft 327 kts 81°
2026-04-14 16:38 51.15258 11.94166 14733 ft 339 kts 80°
2026-04-14 16:39 51.15644 11.97876 14005 ft 340 kts 80°
2026-04-14 16:39 51.16024 12.01550 13068 ft 341 kts 80°
2026-04-14 16:39 51.16418 12.05345 12017 ft 345 kts 80°
2026-04-14 16:39 51.16809 12.09129 11009 ft 347 kts 81°
2026-04-14 16:40 51.17197 12.12914 10027 ft 346 kts 81°
2026-04-14 16:40 51.17584 12.16685 8961 ft 343 kts 80°
2026-04-14 16:40 51.17965 12.20428 7934 ft 341 kts 80°
2026-04-14 16:40 51.18335 12.24094 7439 ft 323 kts 80°
2026-04-14 16:41 51.18668 12.27433 7557 ft 287 kts 80°
2026-04-14 16:41 51.18962 12.30392 7668 ft 255 kts 80°
2026-04-14 16:41 51.19235 12.33120 7771 ft 246 kts 80°
2026-04-14 16:41 51.19505 12.35807 7868 ft 246 kts 80°
2026-04-14 16:42 51.19857 12.38467 7967 ft 246 kts 68°
2026-04-14 16:42 51.20588 12.40924 7908 ft 247 kts 65°
2026-04-14 16:42 51.21109 12.43514 7624 ft 245 kts 78°
2026-04-14 16:42 51.21250 12.46199 7432 ft 239 kts 88°
2026-04-14 16:43 51.21610 12.48762 7536 ft 241 kts 56°
2026-04-14 16:43 51.22764 12.50687 7443 ft 244 kts 41°
2026-04-14 16:43 51.23815 12.52706 7446 ft 228 kts 54°
2026-04-14 16:43 51.24604 12.54901 7540 ft 229 kts 73°
2026-04-14 16:44 51.24866 12.57416 7627 ft 230 kts 79°
2026-04-14 16:44 51.25215 12.59904 7337 ft 229 kts 75°
2026-04-14 16:44 51.25616 12.62332 7205 ft 225 kts 74°
2026-04-14 16:45 51.26440 12.67235 7205 ft 229 kts 74°
2026-04-14 16:45 51.26853 12.69692 7208 ft 229 kts 73°
2026-04-14 16:45 51.27526 12.71969 7206 ft 226 kts 48°
2026-04-14 16:45 51.28744 12.73494 7109 ft 222 kts 20°
2026-04-14 16:46 51.30220 12.74169 6981 ft 220 kts 11°
2026-04-14 16:46 51.31705 12.74762 6867 ft 220 kts 11°
2026-04-14 16:46 51.33176 12.75358 6743 ft 214 kts 12°
2026-04-14 16:46 51.34604 12.75942 6619 ft 210 kts 11°
2026-04-14 16:47 51.36015 12.76519 6495 ft 209 kts 12°
2026-04-14 16:47 51.37417 12.77089 6402 ft 207 kts 11°
2026-04-14 16:47 51.38830 12.77443 6266 ft 204 kts 357°
2026-04-14 16:47 51.40212 12.77100 6117 ft 201 kts 340°
2026-04-14 16:48 51.41458 12.76123 5734 ft 199 kts 323°
2026-04-14 16:48 51.42453 12.74601 5268 ft 200 kts 306°
2026-04-14 16:48 51.43102 12.72674 5009 ft 194 kts 289°
2026-04-14 16:48 51.43298 12.70553 4854 ft 193 kts 272°
2026-04-14 16:49 51.43273 12.68402 4724 ft 190 kts 269°
2026-04-14 16:49 51.43200 12.66371 4644 ft 176 kts 268°
2026-04-14 16:49 51.43121 12.64451 4570 ft 171 kts 268°
2026-04-14 16:49 51.43041 12.62551 4502 ft 173 kts 268°
2026-04-14 16:50 51.42954 12.60471 4427 ft 196 kts 268°
2026-04-14 16:50 51.42858 12.58261 4337 ft 200 kts 268°
2026-04-14 16:50 51.42761 12.56034 4234 ft 201 kts 268°
2026-04-14 16:50 51.42665 12.53860 4004 ft 190 kts 269°
2026-04-14 16:51 51.42576 12.51840 3792 ft 171 kts 270°
2026-04-14 16:51 51.42495 12.50002 3561 ft 162 kts 270°
2026-04-14 16:51 51.42417 12.48213 3341 ft 160 kts 270°
2026-04-14 16:51 51.42341 12.46467 3128 ft 159 kts 270°
2026-04-14 16:52 51.42263 12.44711 2907 ft 158 kts 271°
2026-04-14 16:52 51.42186 12.42967 2693 ft 157 kts 270°
2026-04-14 16:52 51.42107 12.41182 2481 ft 167 kts 270°
2026-04-14 16:52 51.42023 12.39296 2234 ft 172 kts 269°
2026-04-14 16:53 51.41936 12.37384 2005 ft 172 kts 269°
2026-04-14 16:53 51.41851 12.35515 1765 ft 160 kts 268°
2026-04-14 16:53 51.41774 12.33841 1551 ft 143 kts 269°
2026-04-14 16:53 51.41704 12.32302 1366 ft 136 kts 268°
2026-04-14 16:54 51.41637 12.30804 1172 ft 134 kts 268°
2026-04-14 16:54 51.41569 12.29318 993 ft 133 kts 269°
2026-04-14 16:54 51.41502 12.27842 805 ft 133 kts 269°
2026-04-14 16:54 51.41435 12.26384 627 ft 131 kts 268°
2026-04-14 16:55 51.41369 12.24948 481 ft 126 kts 266°
2026-04-14 16:55 51.41320 12.23765 473 ft 84 kts 266°
2026-04-14 16:55 51.41302 12.23352 470 ft 0 kts 272°
2026-04-14 16:55 51.41308 12.23299 470 ft 11 kts 297°
2026-04-14 16:56 51.41389 12.23250 468 ft 15 kts 357°
2026-04-14 16:56 51.41433 12.23245 466 ft 0 kts 356°
2026-04-14 16:56 51.41441 12.23243 466 ft 2 kts 352°
2026-04-14 16:56 51.41442 12.23243 466 ft 0 kts 352°
2026-04-14 16:57 51.41452 12.23241 463 ft 5 kts 352°
2026-04-14 16:57 51.41510 12.23233 465 ft 11 kts 356°
2026-04-14 16:58 51.41589 12.23206 465 ft 13 kts 326°
2026-04-14 16:58 51.41621 12.23118 463 ft 16 kts 282°
2026-04-14 16:58 51.41651 12.22917 456 ft 21 kts 291°
2026-04-14 16:58 51.41695 12.22677 448 ft 24 kts 285°
2026-04-14 16:59 51.41745 12.22395 434 ft 27 kts 288°
2026-04-14 16:59 51.41798 12.22226 433 ft 10 kts
2026-04-14 16:59 51.41862 12.22258 431 ft 2 kts 15°
2026-04-14 16:59 51.41870 12.22261 436 ft 0 kts 15°